SL-8 R/B

Satellite information

Favourite Embed

Satellite Type and Status

ROCKET BODYIN ORBIT

Key statistics

Satellite SL-8 R/B at a glance.

Uptime

11837

Days in orbit

Revolutions

≈ 13.8

Per day

Orbit

LEO

Low Earth Orbit

Inclination

82.9

Latest

Satellite identification and parameters

Extended collection of information and parameters for SL-8 R/B.

Object identification

Identified? True

Debris? False

Object name: SL-8 R/B

International designator: 1993-008B

Object number (NORAD): 22488

Object ID (CCSDS): 22488

Country: COMMONWEALTH OF INDEPENDENT STATES (CIS)

Current information (Y/N): Y

RCS size: LARGE

Orbital parameters

Period: 104.502 minutes

Inclination: 82.9413 deg

SMA: 7349.247 km

Apoapsis: 988.664 km

Periapsis: 953.559 km

RAAN: 48.283 deg

Eccentricy: 0.0023883

Argument of periapsis: 257.0222 deg

Mean anomaly: 113.4931 deg

Mean motion: 13.77966115 rev/day

Mean motion (dot): 0.00000032 rev/day2

B* drag term: 0.00001726 1/REarth

Two-line elements (TLE)

Creation date: July 8, 2025, 2:27 a.m.

Reference frame: TEME

Reference center: EARTH

Epoch: July 7, 2025, 9:35 p.m. UTC

TLE line 0: 0 SL-8 R/B

TLE line 1: 1 22488U 93008B 25188.89986730 .00000032 00000-0 17260-4 0 9993

TLE line 2: 2 22488 82.9413 48.2830 0023883 257.0222 113.4931 13.77966115629186

Live tracking on map

Real-time ground track for satellite SL-8 R/B.

In-orbit conjunctions

A list of the most updated potential collisions computed for object SL-8 R/B.

Target Orbit TCA Probability of collision Miss distance Type
CZ-6A DEB LEO 2025-01-06 21:56:58 0.000109289 365.0 (m) DEBRIS
SL-16 DEB LEO 2024-08-13 08:02:14 0.00259472 46.0 (m) DEBRIS

Associated space launch

Navigation satellite providing location information for the Tsiklon-B navigation system

SL-8 R/B was lifted into orbit during the mission ‘Kosmos-3M | Parus 79’, on board a Kosmos-3M space rocket.

The launch took place on Feb. 9, 1993, 2:56 a.m. from 133/3 (133L).

For more information about the launch, click the button.

Launch to space Kosmos-3M | Parus 79
Kosmos-3M | Parus 79

Agency: N/A

Status: Launch Successful

Launch date: Feb. 9, 1993, 2:56 a.m. UTC

Rocket: Kosmos-3M

Launch pad: 133/3 (133L)

Location: Plesetsk Cosmodrome, Russian Federation

...

Latest news about this satellite

There are no fresh news available about this satellite. Check back as we update our databases every day.


Newsletter sign-up

Weekly statistics, charts and insights to help you stay on top of the space industry.